Printer-friendly version

IAU Minor Planet Center

Minor Planet Center

MPEC 2005-S29 : 2003 UT292

The following Minor Planet Electronic Circular may be linked-to from your own Web pages, but must not otherwise be redistributed electronically.


Read MPEC 2005-S28 Read MPEC 2005-S30


M.P.E.C. 2005-S29                                Issued 2005 Sept. 22, 21:26 UT

     The Minor Planet Electronic Circulars contain information on unusual
         minor planets and routine data on comets.  They are published
   on behalf of Commission 20 of the International Astronomical Union by the
          Minor Planet Center, Smithsonian Astrophysical Observatory,
                          Cambridge, MA 02138, U.S.A.

                  Supported in part by the Brinson Foundation
             Prepared using the Tamkin Foundation Computer Network

                              MPC@CFA.HARVARD.EDU
          URL http://cfa-www.harvard.edu/iau/mpc.html  ISSN 1523-6714

                                  2003 UT292

                           Revision to MPEC 2003-Y84

Additional Observations:
     K03UT2T  C2004 09 06.46208 03 26 40.29 +12 25 27.3          22.0 R ES029695
     K03UT2T  C2004 09 07.45362 03 26 39.07 +12 25 04.0          22.0 R ES029695

Observer details:
695 Kitt Peak.  Observer J. W. Parker.  Measurers J. W. Parker, A. Bieryla.
    2.1-m reflector + CCD.

First and last observations above in comparison with prediction:
Residuals in seconds of arc (or two decimals in degrees) and reference
040906 695 0.06- 0.02-    040907 695 0.06- 0.02-    MPO 58041

Orbital elements:
2003 UT292
Epoch 2005 Aug. 18.0 TT = JDT 2453600.5                 MPC
M 330.79512              (2000.0)            P               Q
n   0.00407638     Peri.  253.44282     -0.22698899     -0.96138294
a  38.8108058      Node   211.03700     +0.96827910     -0.20564025
e   0.2770066      Incl.   17.56790     +0.10445854     -0.18290687
P 242              H    7.0           G   0.15           U   6
Residuals in seconds of arc
031024 695  0.1+  0.0     031121 695  0.1-  0.0     040906 695  0.0   0.2+
031024 695  0.1-  0.0     031121 695  0.1+  0.0     040907 695  0.0   0.2-

Ephemeris:
2003 UT292               a,e,i = 38.81, 0.28, 18                 q = 28.060
Date    TT    R. A. (2000) Decl.     Delta      r     Elong.  Phase     V
2005 09 17    03 36.00   +12 15.9   29.963   30.467   119.2     1.6    22.0
2005 09 27    03 35.54   +12 11.2   29.819   30.460   129.0     1.5    22.0
2005 10 07    03 34.90   +12 06.1   29.694   30.454   138.9     1.2    22.0
2005 10 17    03 34.11   +12 00.7   29.592   30.448   148.8     1.0    21.9
2005 10 27    03 33.18   +11 55.2   29.515   30.442   158.6     0.7    21.9
2005 11 06    03 32.17   +11 49.7   29.467   30.436   167.7     0.4    21.8
2005 11 16    03 31.10   +11 44.5   29.448   30.430   172.9     0.2    21.8
2005 11 26    03 30.04   +11 39.7   29.461   30.424   167.2     0.4    21.9
2005 12 06    03 29.01   +11 35.5   29.503   30.418   157.8     0.7    21.9
2005 12 16    03 28.06   +11 32.0   29.574   30.412   147.8     1.0    21.9
2005 12 26    03 27.23   +11 29.3   29.671   30.405   137.7     1.2    22.0
2006 01 05    03 26.56   +11 27.5   29.792   30.399   127.4     1.5    22.0
2006 01 15    03 26.07   +11 26.7   29.930   30.393   117.2     1.6    22.0
2006 01 25    03 25.79   +11 26.8   30.083   30.387   107.1     1.8    22.0
2006 02 04    03 25.72   +11 27.9   30.245   30.381    97.0     1.8    22.0
2006 02 14    03 25.88   +11 29.9   30.411   30.375    87.0     1.9    22.1
2006 02 24    03 26.27   +11 32.6   30.575   30.369    77.1     1.8    22.1
2006 03 06    03 26.86   +11 36.1   30.732   30.363    67.3     1.7    22.1
2006 03 16    03 27.66   +11 40.2   30.878   30.357    57.6     1.6    22.1
2006 03 26    03 28.64   +11 44.6   31.009   30.351    48.0     1.4    22.1
2006 04 05    03 29.77   +11 49.4   31.120   30.345    38.6     1.2    22.0

Brian G. Marsden             (C) Copyright 2005 MPC           M.P.E.C. 2005-S29

Read MPEC 2005-S28 Read MPEC 2005-S30


Our Web policy. Index to the CBAT/MPC/ICQ pages.


Valid HTML 4.01!